Indianapolis, IN

5:44 PM EST on November 11, 2019 (GMT -0500)
Indianapolis International

Weather History for KIND - September, 2019

Change the Weather History Date:

Wednesday, September 25, 2019

  Actual Average Record
Temperature  
Mean Temperature 70 °F 63 °F  
Max Temperature 81 °F 74 °F 92 °F (1891)
Min Temperature 59 °F 52 °F 35 °F (1950)
Degree Days  
Heating Degree Days 0 4  
Month to date heating degree days 0 43  
Since 1 July heating degree days 0 47  
Cooling Degree Days 5 2  
Month to date cooling degree days 218 119  
Year to date cooling degree days 1257 1040  
Growing Degree Days 20 (Base 50)    
Moisture  
Dew Point 57 °F    
Average Humidity 63    
Maximum Humidity 87    
Minimum Humidity 39    
Precipitation  
Precipitation T in 0.11 in 2.17 in (2011)
Month to date precipitation 0.40 2.59  
Year to date precipitation 36.95 31.92  
Snow  
Snow 0.00 in 0.00 in 0.00 in ()
Month to date snowfall 0.0 0.0  
Since 1 July snowfall 0.0 0.0  
Since 1 September snowfall 0.0 0.0  
Snow Depth 0.00 in    
Sea Level Pressure  
Sea Level Pressure 29.84 in    
Wind  
Wind Speed 9 mph (SSW)    
Max Wind Speed 20 mph    
Max Gust Speed 25 mph    
Visibility 10 miles    
Events Rain    
T = Trace of Precipitation, MM = Missing Value Source: NWS Daily Summary

Daily Weather History Graph

Daily Weather History Graph

Search for Another Location

Airport or City:

Astronomy

Sep. 25, 2019 Rise Set
Actual Time 7:35 AM EDT 7:37 PM EDT
Civil Twilight 7:08 AM EDT 8:04 PM EDT
Nautical Twilight 6:37 AM EDT 8:35 PM EDT
Astronomical Twilight 6:05 AM EDT 9:07 PM EDT
Moon 3:29 AM EDT (9/25) 6:08 PM EDT (9/25)
Length of Visible Light 12h 56m
Length of Day
12h 02m
Waning Crescent, 14% of the Moon is Illuminated
Sep 25
Waning Crescent
Sep 28
New
Oct 5
First Quarter
Oct 13
Full
Oct 21
Last Quarter

Hourly Weather History & Observations

Time (EDT) Temp. Heat Index Dew Point Humidity Pressure Visibility Wind Dir Wind Speed Gust Speed Precip Events Conditions
12:54 AM 61.0 °F - 55.0 °F 81% 29.88 in 10.0 mi SW 4.6 mph - N/A   Scattered Clouds
1:54 AM 60.1 °F - 55.9 °F 86% 29.88 in 10.0 mi SW 5.8 mph - N/A   Scattered Clouds
2:54 AM 59.0 °F - 55.0 °F 87% 29.88 in 10.0 mi SW 5.8 mph - N/A   Mostly Cloudy
3:54 AM 60.1 °F - 55.0 °F 83% 29.86 in 10.0 mi South 6.9 mph - N/A   Scattered Clouds
4:54 AM 62.1 °F - 55.0 °F 78% 29.84 in 10.0 mi South 9.2 mph - N/A   Mostly Cloudy
5:54 AM 61.0 °F - 55.0 °F 81% 29.86 in 10.0 mi South 6.9 mph - N/A   Mostly Cloudy
6:54 AM 60.1 °F - 54.0 °F 80% 29.87 in 10.0 mi SSE 5.8 mph - N/A   Mostly Cloudy
7:54 AM 61.0 °F - 54.0 °F 78% 29.88 in 10.0 mi South 8.1 mph - N/A   Mostly Cloudy
8:54 AM 63.0 °F - 53.1 °F 70% 29.88 in 10.0 mi South 9.2 mph - N/A   Mostly Cloudy
9:54 AM 68.0 °F - 53.1 °F 59% 29.86 in 10.0 mi SSW 11.5 mph - N/A   Mostly Cloudy
10:54 AM 73.0 °F - 52.0 °F 48% 29.86 in 10.0 mi SSW 15.0 mph - N/A   Mostly Cloudy
11:54 AM 73.9 °F - 51.1 °F 45% 29.85 in 10.0 mi SSW 13.8 mph - 0.00 in Rain Light Rain
12:54 PM 77.0 °F - 52.0 °F 42% 29.82 in 10.0 mi SSW 13.8 mph - 0.00 in   Mostly Cloudy
1:54 PM 81.0 °F 80.4 °F 53.1 °F 38% 29.82 in 10.0 mi SW 15.0 mph 21.9 mph N/A   Mostly Cloudy
2:54 PM 78.1 °F - 55.0 °F 45% 29.80 in 10.0 mi SW 9.2 mph - N/A   Mostly Cloudy
3:54 PM 78.1 °F - 55.9 °F 46% 29.79 in 10.0 mi SW 11.5 mph - N/A   Overcast
4:54 PM 80.1 °F 80.6 °F 57.9 °F 47% 29.79 in 10.0 mi South 8.1 mph - N/A   Mostly Cloudy
5:54 PM 77.0 °F - 59.0 °F 54% 29.79 in 10.0 mi SSW 10.4 mph - N/A   Mostly Cloudy
6:54 PM 77.0 °F - 61.0 °F 58% 29.79 in 10.0 mi SSW 10.4 mph - N/A   Mostly Cloudy
7:54 PM 75.0 °F - 62.1 °F 64% 29.80 in 10.0 mi SW 9.2 mph - N/A   Mostly Cloudy
8:54 PM 73.9 °F - 63.0 °F 68% 29.81 in 10.0 mi WSW 6.9 mph - N/A   Overcast
9:54 PM 73.0 °F - 64.0 °F 73% 29.82 in 10.0 mi West 4.6 mph - N/A   Overcast
10:54 PM 73.0 °F - 64.9 °F 76% 29.82 in 10.0 mi West 6.9 mph - N/A   Overcast
11:54 PM 72.0 °F - 64.9 °F 78% 29.83 in 10.0 mi West 8.1 mph - N/A   Overcast